• In Netherlands
  • List of Countries
  • For 7 days
  • Water Temperature
  • Satellite Maps
  • Weather Map
  • Weather Widgets
  • user-avatar
    Login

    Hourly Weather Bregenz

    Today, 20 January, Saturday

    Time Temperature Precipitation Wind Pressure Humidity
    00:00 -7°C° 0.8 mm 3 mps 641 mmHg 93%
    01:00 -7°C° 0.8 mm 3 mps 641 mmHg 94%
    02:00 -8°C° 0.2 mm 3 mps 641 mmHg 94%
    03:00 -8°C° 0.2 mm 3 mps 641 mmHg 94%
    04:00 -8°C° 0.2 mm 3 mps 641 mmHg 93%
    05:00 -8°C° 0 mm 3 mps 641 mmHg 91%
    06:00 -9°C° 0 mm 3 mps 641 mmHg 89%
    07:00 -9°C° 0 mm 3 mps 641 mmHg 87%
    08:00 -9°C° 0 mm 3 mps 640 mmHg 84%
    09:00 -8°C° 0 mm 3 mps 640 mmHg 80%
    10:00 -8°C° 0 mm 3 mps 640 mmHg 77%
    11:00 -6°C° 0 mm 3 mps 639 mmHg 75%
    12:00 -5°C° 0 mm 3 mps 639 mmHg 73%
    13:00 -4°C° 0 mm 3 mps 638 mmHg 71%
    14:00 -3°C° 0.1 mm 2 mps 637 mmHg 74%
    15:00 -3°C° 0.1 mm 2 mps 637 mmHg 76%
    16:00 -3°C° 0.1 mm 2 mps 636 mmHg 79%
    17:00 -4°C° 0.7 mm 2 mps 635 mmHg 82%
    18:00 -6°C° 0.7 mm 3 mps 635 mmHg 85%
    19:00 -6°C° 0.7 mm 3 mps 634 mmHg 89%
    20:00 -6°C° 1.8 mm 3 mps 635 mmHg 91%
    21:00 -6°C° 1.8 mm 3 mps 635 mmHg 93%
    22:00 -6°C° 1.8 mm 3 mps 635 mmHg 95%
    23:00 -6°C° 1.1 mm 3 mps 635 mmHg 95%

    Tomorrow, 21 January, Sunday

    Time Temperature Precipitation Wind Pressure Humidity
    00:00 -5°C° 1.1 mm 3 mps 636 mmHg 95%
    01:00 -4°C° 1.1 mm 2 mps 636 mmHg 96%
    02:00 -5°C° 0.8 mm 3 mps 636 mmHg 96%
    03:00 -4°C° 0.8 mm 3 mps 636 mmHg 96%
    04:00 -4°C° 0.8 mm 4 mps 636 mmHg 96%
    05:00 -4°C° 1.1 mm 5 mps 636 mmHg 96%
    06:00 -4°C° 1.1 mm 5 mps 637 mmHg 96%
    07:00 -4°C° 1.1 mm 6 mps 638 mmHg 96%
    08:00 -4°C° 1.3 mm 6 mps 638 mmHg 96%
    09:00 -4°C° 1.3 mm 5 mps 639 mmHg 96%
    10:00 -4°C° 1.3 mm 5 mps 640 mmHg 96%
    11:00 -3°C° 1.7 mm 4 mps 640 mmHg 96%
    12:00 -4°C° 1.7 mm 3 mps 641 mmHg 96%
    13:00 -4°C° 1.7 mm 3 mps 641 mmHg 96%
    14:00 -3°C° 2.1 mm 2 mps 641 mmHg 96%
    15:00 -3°C° 2.1 mm 2 mps 641 mmHg 96%
    16:00 -2°C° 2.1 mm 1 mps 642 mmHg 97%
    17:00 -2°C° 1.7 mm 1 mps 642 mmHg 96%
    18:00 -2°C° 1.7 mm 1 mps 642 mmHg 96%
    19:00 -2°C° 1.7 mm 1 mps 642 mmHg 96%
    20:00 -2°C° 1.4 mm 1 mps 642 mmHg 96%
    21:00 -4°C° 1.4 mm 2 mps 642 mmHg 96%
    22:00 -4°C° 1.4 mm 2 mps 642 mmHg 96%
    23:00 -3°C° 2.5 mm 2 mps 642 mmHg 96%

    Day after tomorrow, 22 January, Monday

    Time Temperature Precipitation Wind Pressure Humidity
    00:00 -2°C° 2.5 mm 2 mps 642 mmHg 96%
    01:00 -2°C° 2.5 mm 2 mps 642 mmHg 96%
    02:00 -1°C° 3.5 mm 3 mps 642 mmHg 97%
    03:00 -1°C° 3.5 mm 3 mps 641 mmHg 97%
    04:00 -1°C° 3.5 mm 4 mps 641 mmHg 98%
    05:00 -1°C° 2.9 mm 4 mps 641 mmHg 98%
    06:00 -1°C° 2.9 mm 4 mps 641 mmHg 98%
    07:00 -1°C° 2.9 mm 4 mps 641 mmHg 98%
    08:00 -1°C° 2.7 mm 4 mps 642 mmHg 97%
    09:00 0°C° 2.7 mm 4 mps 642 mmHg 97%
    10:00 0°C° 2.7 mm 4 mps 642 mmHg 97%
    11:00 0°C° 2.8 mm 4 mps 642 mmHg 97%
    12:00 0°C° 2.8 mm 4 mps 642 mmHg 97%
    13:00 0°C° 2.8 mm 4 mps 642 mmHg 97%
    14:00 0°C° 1.2 mm 4 mps 642 mmHg 96%
    15:00 0°C° 1.2 mm 4 mps 642 mmHg 96%
    16:00 +1°C° 1.2 mm 4 mps 642 mmHg 96%
    17:00 0°C° 0.3 mm 4 mps 642 mmHg 95%
    18:00 0°C° 0.3 mm 4 mps 642 mmHg 95%
    19:00 0°C° 0.3 mm 4 mps 642 mmHg 94%
    20:00 0°C° 1 mm 4 mps 643 mmHg 95%
    21:00 0°C° 1 mm 5 mps 643 mmHg 95%
    22:00 0°C° 1 mm 5 mps 643 mmHg 95%
    23:00 0°C° 2.1 mm 5 mps 644 mmHg 96%

    23 January, Tuesday

    Time Temperature Precipitation Wind Pressure Humidity
    00:00 0°C° 2.1 mm 4 mps 644 mmHg 96%
    01:00 0°C° 2.1 mm 4 mps 645 mmHg 96%
    02:00 0°C° 1.2 mm 4 mps 646 mmHg 96%
    03:00 0°C° 1.2 mm 3 mps 647 mmHg 97%
    04:00 0°C° 1.2 mm 3 mps 647 mmHg 97%
    05:00 +1°C° 0.2 mm 2 mps 648 mmHg 97%
    06:00 -1°C° 0.2 mm 2 mps 648 mmHg 97%
    07:00 -1°C° 0.2 mm 2 mps 649 mmHg 97%
    08:00 -1°C° 0 mm 2 mps 649 mmHg 97%
    09:00 +1°C° 0 mm 1 mps 650 mmHg 96%
    10:00 +1°C° 0 mm 1 mps 651 mmHg 96%
    11:00 +2°C° 0 mm 1 mps 651 mmHg 95%
    12:00 +2°C° 0 mm 1 mps 651 mmHg 93%
    13:00 +3°C° 0 mm 1 mps 651 mmHg 92%
    14:00 +2°C° 0 mm 1 mps 651 mmHg 91%
    15:00 +2°C° 0 mm 1 mps 651 mmHg 90%
    16:00 +2°C° 0 mm 1 mps 651 mmHg 89%
    17:00 +1°C° 0 mm 1 mps 651 mmHg 85%
    18:00 -2°C° 0 mm 2 mps 651 mmHg 81%
    19:00 -4°C° 0 mm 2 mps 651 mmHg 77%
    20:00 -4°C° 0 mm 2 mps 651 mmHg 74%
    21:00 -4°C° 0 mm 2 mps 651 mmHg 71%
    22:00 -4°C° 0 mm 2 mps 652 mmHg 69%
    23:00 -4°C° 0 mm 2 mps 652 mmHg 67%

    24 January, Wednesday

    Time Temperature Precipitation Wind Pressure Humidity
    00:00 -4°C° 0 mm 2 mps 652 mmHg 66%
    01:00 -4°C° 0 mm 2 mps 652 mmHg 64%
    02:00 -4°C° 0 mm 2 mps 651 mmHg 64%
    03:00 -4°C° 0 mm 2 mps 651 mmHg 63%
    04:00 -5°C° 0 mm 2 mps 651 mmHg 63%
    05:00 -4°C° 0 mm 2 mps 651 mmHg 62%
    06:00 -4°C° 0 mm 2 mps 651 mmHg 62%
    07:00 -4°C° 0 mm 2 mps 651 mmHg 61%
    08:00 -3°C° 0 mm 2 mps 652 mmHg 62%
    09:00 -2°C° 0 mm 2 mps 652 mmHg 64%
    10:00 -1°C° 0 mm 2 mps 652 mmHg 66%
    11:00 +1°C° 0 mm 2 mps 652 mmHg 71%
    12:00 +3°C° 0 mm 1 mps 652 mmHg 76%
    13:00 +4°C° 0 mm 1 mps 652 mmHg 81%
    14:00 +4°C° 0 mm 1 mps 652 mmHg 80%
    15:00 +4°C° 0 mm 1 mps 651 mmHg 78%
    16:00 +3°C° 0 mm 2 mps 651 mmHg 76%
    17:00 +1°C° 0 mm 2 mps 651 mmHg 74%
    18:00 -1°C° 0 mm 2 mps 651 mmHg 71%
    19:00 -2°C° 0 mm 2 mps 651 mmHg 69%
    20:00 -2°C° 0 mm 2 mps 651 mmHg 68%
    21:00 -3°C° 0 mm 2 mps 650 mmHg 67%
    22:00 -4°C° 0 mm 3 mps 650 mmHg 66%
    23:00 -4°C° 0 mm 3 mps 650 mmHg 66%

    25 January, Thursday

    Time Temperature Precipitation Wind Pressure Humidity
    00:00 -4°C° 0 mm 3 mps 650 mmHg 65%
    01:00 -4°C° 0 mm 3 mps 650 mmHg 65%
    02:00 -5°C° 0 mm 3 mps 650 mmHg 65%
    03:00 -5°C° 0 mm 3 mps 649 mmHg 65%
    04:00 -4°C° 0 mm 2 mps 649 mmHg 65%
    05:00 -4°C° 0 mm 2 mps 649 mmHg 66%
    06:00 -4°C° 0 mm 2 mps 649 mmHg 66%
    07:00 -4°C° 0 mm 2 mps 649 mmHg 66%
    08:00 -3°C° 0 mm 2 mps 649 mmHg 67%
    09:00 -2°C° 0 mm 2 mps 650 mmHg 69%
    10:00 -1°C° 0 mm 2 mps 650 mmHg 70%
    11:00 +1°C° 0 mm 2 mps 650 mmHg 74%
    12:00 +2°C° 0 mm 2 mps 649 mmHg 78%
    13:00 +3°C° 0 mm 2 mps 649 mmHg 82%
    14:00 +3°C° 0 mm 2 mps 649 mmHg 82%
    15:00 +3°C° 0 mm 2 mps 649 mmHg 82%
    16:00 +2°C° 0 mm 2 mps 648 mmHg 81%
    17:00 +1°C° 0 mm 2 mps 648 mmHg 80%
    18:00 -1°C° 0 mm 2 mps 648 mmHg 79%
    19:00 -2°C° 0 mm 2 mps 648 mmHg 78%
    20:00 -2°C° 0 mm 2 mps 648 mmHg 78%
    21:00 -2°C° 0 mm 2 mps 648 mmHg 78%
    22:00 -4°C° 0 mm 3 mps 648 mmHg 78%
    23:00 -4°C° 0 mm 3 mps 648 mmHg 78%
    Show more